This is the latest recevied weather packets stored in our database for station/object WD0REW. If no packets are shown the sender has not sent any weather packets the latest 10 day(s).
| Time | Temp. | Humidity | Pressure | Rain* | Wind** | Luminosity | Snow |
|---|---|---|---|---|---|---|---|
| 1777821517 | 18.33° C | 43% | 1018.8 hPa | 0 mm | - | 596 W/m² | - |
| 1777821214 | 18.89° C | 44% | 1018.9 hPa | 0 mm | - | 582 W/m² | - |
| 1777820911 | 18.33° C | 48% | 1019 hPa | 0 mm | - | 568 W/m² | - |
| 1777820607 | 17.78° C | 47% | 1018.9 hPa | 0 mm | - | 553 W/m² | - |
| 1777820304 | 17.22° C | 47% | 1018.8 hPa | 0 mm | - | 539 W/m² | - |
| 1777820002 | 17.22° C | 48% | 1018.9 hPa | 0 mm | - | 524 W/m² | - |
| 1777819698 | 17.22° C | 47% | 1019.1 hPa | 0 mm | - | 511 W/m² | - |
| 1777819397 | 17.22° C | 48% | 1019.2 hPa | 0 mm | - | 494 W/m² | - |
| 1777819094 | 16.67° C | 49% | 1019.1 hPa | 0 mm | - | 480 W/m² | - |
| 1777818790 | 16.11° C | 49% | 1019.1 hPa | 0 mm | - | 464 W/m² | - |
| 1777818487 | 15.56° C | 51% | 1019.3 hPa | 0 mm | - | 449 W/m² | - |
| 1777818184 | 15.56° C | 50% | 1019.1 hPa | 0 mm | - | 434 W/m² | - |
| 1777817880 | 15.56° C | 52% | 1019.3 hPa | 0 mm | - | 418 W/m² | - |
| 1777817578 | 15° C | 51% | 1019.4 hPa | 0 mm | - | 402 W/m² | - |
| 1777817274 | 14.44° C | 51% | 1019.5 hPa | 0 mm | - | 387 W/m² | - |
| 1777816971 | 13.89° C | 55% | 1019.7 hPa | 0 mm | - | 370 W/m² | - |
| 1777816668 | 13.89° C | 54% | 1019.8 hPa | 0 mm | - | 352 W/m² | - |
| 1777816364 | 13.89° C | 53% | 1019.7 hPa | 0 mm | - | 335 W/m² | - |
| 1777816063 | 13.33° C | 56% | 1019.7 hPa | 0 mm | - | 317 W/m² | - |
| 1777815760 | 12.78° C | 58% | 1019.7 hPa | 0 mm | - | 300 W/m² | - |
| 1777815457 | 12.78° C | 58% | 1019.8 hPa | 0 mm | - | 283 W/m² | - |
| 1777815155 | 12.22° C | 59% | 1019.7 hPa | 0 mm | - | 264 W/m² | - |
| 1777814851 | 12.22° C | 64% | 1019.8 hPa | 0 mm | - | 214 W/m² | - |
| 1777814547 | 11.67° C | 62% | 1019.8 hPa | 0 mm | - | 168 W/m² | - |
| 1777814244 | 11.67° C | 63% | 1019.8 hPa | 0 mm | - | 141 W/m² | - |
* Rain latest hour (hover to see other rain measurements)
** Current wind speed in m/s (hover to see current wind gust speed)